Regional Weather Roundup
Issued by NWS Lake Charles, LA

Home | Current Version | Previous Version | Text Only | Print | Product List | Glossary On
Versions: 1 2 3 4 5 6 7 8 9 10 11 12 13 14 15 16 17 18 19 20 21 22 23 24 25 26 27 28 29 30 31 32 33 34 35 36 37 38 39 40 41 42 43 44 45 46 47 48 49
000
ASUS44 KLCH 292210
RWRLCH
RWRLCH
REGIONAL WEATHER ROUNDUP
NATIONAL WEATHER SERVICE LAKE CHARLES LA
500 PM CDT FRI MAY 29 2015

Note: "fair" indicates few or no clouds below 12,000 feet with no
significant weather and/or obstructions to visibility.


ACROSS SOUTHEAST TEXAS

CITY           SKY/WX    TMP DP  RH WIND       PRES   REMARKS
BEAUMONT       PTSUNNY   84  73  69 S16       29.96F
BEAUMONT CITY  MOCLDY    82  73  72 S13G18    29.98R
ORANGE         MOCLDY    83  73  72 S14G20    29.99S
JASPER         PTSUNNY   85  76  73 S8        29.98S
$$

ACROSS CENTRAL LOUISIANA

CITY           SKY/WX    TMP DP  RH WIND       PRES   REMARKS
LEESVILLE      PTSUNNY   84  73  70 S10       29.95R
FULLERTON        N/A     88  72  58 S10G17    29.93F
ALEXANDRIA INT MOSUNNY   85  72  65 S8        29.93F
ESLER FIELD    MOSUNNY   87  72  60 S7        29.95F
DERIDDER       MOCLDY    85  72  64 S13       29.99R
OAKDALE        CLOUDY    84  75  73 S7        29.96F
OPELOUSAS        N/A    N/A N/A N/A SE12      29.98S
$$

ACROSS SOUTHWEST AND SOUTH CENTRAL LOUISIANA

CITY           SKY/WX    TMP DP  RH WIND       PRES   REMARKS
SULPHUR        MOCLDY    86  74  66 S16       29.98S
LAKE CHARLES   PTSUNNY   84  73  69 S12G20    29.97S
CHENNAULT INT  NOT AVBL
CAMERON PHI    CLEAR     82  75  78 S14G21    30.00S
DEQUINCY         N/A     84  74  70 S10       29.97S
JENNINGS         N/A     83  73  71 S12G17    29.98R
LAFAYETTE      MOSUNNY   86  71  60 S15       29.99F
NEW IBERIA     MOSUNNY   86  72  62 S10       30.00F
ABBEVILLE        N/A     82  73  73 S12       30.00S
PATTERSON      PTSUNNY   81  72  74 E7        30.03F
SALT POINT       N/A     85  73  67 S7        30.00F
$$

SELECTED SITES ACROSS THE REGION

CITY           SKY/WX    TMP DP  RH WIND       PRES   REMARKS
HOUSTON BUSH   MOSUNNY   88  64  44 S9        29.94F
HOUSTON HOBBY  MOSUNNY   87  65  47 S9        29.94F
GALVESTON      CLOUDY    84  76  76 S10       29.98F
COLLEGE STAT   SUNNY     86  67  52 SE7       29.94S
CONROE         SUNNY     87  64  46 S8        29.95F
HUNTSVILLE     SUNNY     87  66  49 S10       29.94F
LUFKIN         MOSUNNY   88  66  48 S13       29.94F
SHREVEPORT     PTSUNNY   86  69  56 S20G29    29.89F
MONROE         SUNNY     88  71  57 SE13G20   29.94F
NATCHEZ MS     SUNNY     86  72  62 S12       30.00R
BATON ROUGE    CLOUDY    75  71  87 E6        30.03R
N.O. INTL ARPT PTSUNNY   84  68  58 SE13      30.04S
SLIDELL        PTSUNNY   84  71  65 SE12      30.03F
$$

MARINE REPORTS

STATION/POSITION TIME  TEMP    WIND        PRES    VSBY  WAVE
                       AIR SEA DIR/SP/G                  HT/PER
                 (UTC) (F)     (DEG/KT/KT) (MB)    (MI)  (FT/S)
BUOY 30 S HIGH I 2150   81 82  170/ 14/ 16 1014.0F         4/ 5
SEA RIM ST PARK  2200   81     180/ 13/ 16 1015.4F
PORT ARTHUR      2100      78  150/  9/ 14 1015.2R
SABINE PASS N    2106   82 79  170/ 16/ 20 1015.2R
TEXAS POINT      NOT AVBL
CALCASIEU PASS   2106   82 83  170/ 16/ 20   N/A
LK CHARLES BEACH 2106   85 77              1015.0F
MARSH ISLAND     2100   82     180/ 10/ 16   N/A           0
FRESH WATER LOCK 2106   81 83  150/ 11/ 14   N/A
AMERADA PASS     2106   83 82  180/  4/  9 1016.6F
$$



USA.gov is the U.S. government's official web portal to all federal, state and local government web resources and services.